DW6927 Weather Reports


Display with metric or nautical units.
time (UTC)temp
F
wind
direction
speed
MPH
gust
MPH
rain 1hr
in
rain 24hr
in
rain mn
in
humidity
%
barometer
mb
20260509223056 68 0 0.0 1.0 0.00 0.00 0.00 75 1011.3
20260509222553 69 28 0.0 1.0 0.00 0.00 0.00 75 1011.1
20260509222053 69 0 0.0 2.0 0.00 0.00 0.00 76 1011.1
20260509221554 69 28 0.0 2.0 0.00 0.00 0.00 75 1011.0
20260509221054 69 0 0.0 2.0 0.00 0.00 0.00 76 1011.2
20260509220552 69 0 0.0 1.0 0.00 0.00 0.00 78 1011.2
20260509220056 69 51 0.0 1.0 0.00 0.00 0.00 75 1011.2
20260509215554 69 49 0.0 2.0 0.00 0.00 0.00 76 1011.1
20260509215054 69 73 0.0 2.0 0.00 0.00 0.00 75 1011.1
20260509214610 69 0 0.0 2.0 0.00 0.00 0.00 74 1011.1
20260509214053 69 0 0.0 4.0 0.00 0.00 0.00 73 1011.2
20260509213553 69 319 0.0 4.0 0.00 0.00 0.00 74 1011.1
20260509213053 70 0 0.0 3.0 0.00 0.00 0.00 75 1011.0
20260509212554 70 0 0.0 3.0 0.00 0.00 0.00 73 1010.9
20260509212053 70 32 0.0 3.0 0.00 0.00 0.00 73 1011.1
20260509211551 70 0 0.0 0.0 0.00 0.00 0.00 74 1011.2
20260509211053 70 0 0.0 0.0 0.00 0.00 0.00 74 1010.9
20260509210615 70 0 0.0 0.0 0.00 0.00 0.00 72 1010.8
20260509210058 70 0 0.0 0.0 0.00 0.00 0.00 71 1010.7
20260509205553 70 0 0.0 0.0 0.00 0.00 0.00 71 1010.6
20260509205053 71 0 0.0 0.0 0.00 0.00 0.00 71 1010.6
20260509204554 71 0 0.0 0.0 0.00 0.00 0.00 71 1010.6
20260509204050 71 0 0.0 2.0 0.00 0.00 0.00 72 1010.3
20260509203551 71 0 0.0 2.0 0.00 0.00 0.00 71 1010.5
20260509203101 71 0 0.0 2.0 0.00 0.00 0.00 71 1010.4
20260509202550 70 243 0.0 4.0 0.00 0.00 0.00 69 1010.4
20260509202053 70 212 0.0 4.0 0.00 0.00 0.00 70 1010.3
20260509201556 70 207 0.0 4.0 0.00 0.00 0.00 70 1010.6
20260509201053 70 149 0.0 2.0 0.00 0.00 0.00 68 1010.7
20260509200553 70 0 0.0 4.0 0.00 0.00 0.00 69 1010.6
20260509200056 70 0 0.0 4.0 0.00 0.00 0.00 66 1010.6
20260509195554 70 0 0.0 0.0 0.00 0.00 0.00 68 1010.7
20260509195053 71 0 0.0 0.0 0.00 0.00 0.00 70 1010.6
20260509194554 71 0 0.0 0.0 0.00 0.00 0.00 67 1010.7
20260509194053 71 0 0.0 1.0 0.00 0.00 0.00 68 1010.8
20260509193553 70 0 0.0 3.0 0.00 0.00 0.00 67 1010.6
20260509193059 70 0 0.0 3.0 0.00 0.00 0.00 67 1010.7
20260509192557 70 0 0.0 3.0 0.00 0.00 0.00 68 1010.7
20260509192053 70 0 0.0 0.0 0.00 0.00 0.00 68 1010.9
20260509191606 70 0 0.0 0.0 0.00 0.00 0.00 68 1010.9
20260509191053 70 0 0.0 2.0 0.00 0.00 0.00 67 1011.0
20260509190555 70 0 0.0 2.0 0.00 0.00 0.00 67 1011.0
20260509190056 71 5 0.0 2.0 0.00 0.00 0.00 67 1011.0
20260509185553 70 0 0.0 2.0 0.00 0.00 0.00 66 1010.8
20260509185050 70 0 0.0 2.0 0.00 0.00 0.00 67 1010.9
20260509184600 71 0 0.0 2.0 0.00 0.00 0.00 65 1010.9
20260509184053 71 329 0.0 2.0 0.00 0.00 0.00 64 1011.1
20260509183554 71 0 0.0 3.0 0.00 0.00 0.00 68 1011.2
20260509183058 71 0 1.0 3.0 0.00 0.00 0.00 67 1011.2
20260509182557 71 213 0.0 3.0 0.00 0.00 0.00 65 1011.0
20260509182054 71 0 0.0 3.0 0.00 0.00 0.00 67 1011.0
20260509181551 71 202 0.0 2.0 0.00 0.00 0.00 65 1011.0
20260509181053 71 178 1.0 3.0 0.00 0.00 0.00 63 1010.9
20260509180554 71 0 1.0 3.0 0.00 0.00 0.00 63 1010.8
20260509180054 72 286 0.0 4.0 0.00 0.00 0.00 66 1010.8
20260509175553 71 350 1.0 4.0 0.00 0.00 0.00 66 1010.7
20260509175053 71 0 1.0 4.0 0.00 0.00 0.00 66 1010.9
20260509174620 71 104 1.0 4.0 0.00 0.00 0.00 68 1011.2
20260509174052 71 323 1.0 4.0 0.00 0.00 0.00 70 1011.3
20260509173552 70 0 1.0 3.0 0.00 0.00 0.00 67 1011.4
20260509173100 70 0 0.0 5.0 0.00 0.00 0.00 68 1011.4
20260509172557 70 86 0.0 5.0 0.00 0.00 0.00 67 1011.4
20260509172054 69 14 1.0 4.0 0.00 0.00 0.00 68 1011.4
20260509171552 69 32 1.0 2.0 0.00 0.00 0.00 72 1011.4
20260509171054 69 32 0.0 2.0 0.00 0.00 0.00 70 1011.5
20260509170553 69 10 1.0 3.0 0.00 0.00 0.00 70 1011.7
20260509170052 68 28 1.0 3.0 0.00 0.00 0.00 73 1011.8
20260509165551 68 223 1.0 3.0 0.00 0.00 0.00 73 1011.9
20260509165053 68 238 0.0 3.0 0.00 0.00 0.00 75 1012.0
20260509164555 67 0 1.0 3.0 0.00 0.00 0.00 75 1012.0
20260509164053 66 278 1.0 3.0 0.00 0.00 0.00 76 1011.9
20260509163552 66 0 1.0 3.0 0.00 0.00 0.00 76 1012.0
20260509163056 65 57 1.0 4.0 0.00 0.00 0.00 77 1012.1
20260509162553 65 162 1.0 4.0 0.00 0.00 0.00 78 1012.2
20260509162052 65 331 1.0 3.0 0.00 0.00 0.00 81 1012.2
20260509161554 64 12 1.0 4.0 0.00 0.00 0.00 83 1012.4
20260509161055 64 352 1.0 4.0 0.00 0.00 0.00 82 1012.3
20260509160554 63 313 1.0 5.0 0.00 0.00 0.00 84 1012.3
20260509160058 63 0 1.0 5.0 0.00 0.00 0.00 82 1012.2
20260509155556 63 330 1.0 3.0 0.00 0.00 0.00 85 1012.3
20260509155049 63 333 1.0 3.0 0.00 0.00 0.00 84 1012.5
20260509154552 63 348 0.0 3.0 0.00 0.00 0.00 84 1012.4
20260509154053 62 332 2.0 3.0 0.00 0.00 0.00 84 1012.4
20260509153553 62 0 1.0 2.0 0.00 0.00 0.00 86 1012.4
20260509153104 62 336 0.0 2.0 0.00 0.00 0.00 87 1012.5
20260509152553 62 318 0.0 4.0 0.00 0.00 0.00 88 1012.5
20260509152054 62 0 0.0 4.0 0.00 0.00 0.00 88 1012.3
20260509151556 61 0 1.0 4.0 0.00 0.00 0.00 88 1012.4
20260509151056 61 22 0.0 4.0 0.00 0.00 0.00 88 1012.4
20260509150553 61 338 0.0 4.0 0.00 0.00 0.00 89 1012.5
20260509150054 61 107 1.0 4.0 0.00 0.00 0.00 90 1012.4
20260509145550 61 20 1.0 4.0 0.00 0.00 0.00 90 1012.6
20260509145053 60 0 0.0 3.0 0.00 0.00 0.00 91 1012.4
20260509144554 60 355 0.0 4.0 0.00 0.00 0.00 91 1012.3
20260509144053 60 0 1.0 4.0 0.00 0.00 0.00 92 1012.2
20260509143553 60 0 0.0 5.0 0.00 0.00 0.00 93 1012.0
20260509143055 60 0 0.0 5.0 0.00 0.00 0.00 94 1011.9
20260509142553 59 329 1.0 5.0 0.00 0.00 0.00 95 1011.7
20260509142053 59 0 0.0 4.0 0.00 0.00 0.00 96 1011.7
20260509141556 58 27 0.0 3.0 0.00 0.00 0.00 96 1011.6
20260509141053 58 360 0.0 3.0 0.00 0.00 0.00 96 1011.6
20260509140553 57 113 0.0 2.0 0.00 0.00 0.00 96 1011.6
20260509140053 57 89 0.0 2.0 0.00 0.00 0.00 97 1011.6
20260509135553 56 0 0.0 2.0 0.00 0.00 0.00 96 1011.5
20260509135053 56 0 0.0 0.0 0.00 0.00 0.00 96 1011.6
20260509134552 55 0 0.0 0.0 0.00 0.00 0.00 96 1011.7
20260509134052 55 0 0.0 0.0 0.00 0.00 0.00 96 1011.8
20260509133556 55 0 0.0 0.0 0.00 0.00 0.00 96 1011.7
20260509133054 54 0 0.0 0.0 0.00 0.00 0.00 96 1011.9
20260509132552 54 0 0.0 0.0 0.00 0.00 0.00 96 1011.7
20260509132054 54 0 0.0 0.0 0.00 0.00 0.00 96 1011.8
20260509131559 54 0 0.0 0.0 0.00 0.00 0.00 96 1011.9
20260509131052 54 0 0.0 0.0 0.00 0.00 0.00 96 1011.8
20260509130552 54 0 0.0 0.0 0.00 0.00 0.00 96 1011.7
20260509130107 54 0 0.0 0.0 0.00 0.00 0.00 96 1011.6
20260509125553 53 0 0.0 0.0 0.00 0.00 0.00 96 1011.6
20260509125053 53 0 0.0 0.0 0.00 0.00 0.00 96 1011.5
20260509124559 53 0 0.0 0.0 0.00 0.00 0.00 96 1011.7
20260509124055 53 0 0.0 0.0 0.00 0.00 0.00 96 1011.7
20260509123554 52 0 0.0 0.0 0.00 0.00 0.00 96 1011.7
20260509123057 52 0 0.0 0.0 0.00 0.00 0.00 96 1011.7
20260509122553 52 0 0.0 0.0 0.00 0.00 0.00 96 1011.7
20260509122053 52 0 0.0 0.0 0.00 0.00 0.00 95 1011.6
20260509121633 52 0 0.0 0.0 0.00 0.00 0.00 95 1011.7
20260509121053 52 0 0.0 0.0 0.00 0.00 0.00 95 1011.5
20260509120554 52 0 0.0 0.0 0.00 0.00 0.00 96 1011.5
20260509115553 52 0 0.0 0.0 0.00 0.00 0.00 96 1011.6
20260509115053 52 0 0.0 0.0 0.00 0.00 0.00 96 1011.5
20260509114600 51 0 0.0 0.0 0.00 0.00 0.00 96 1011.6
20260509114053 51 0 0.0 0.0 0.00 0.00 0.00 96 1011.6
20260509113553 51 0 0.0 0.0 0.00 0.00 0.00 96 1011.8
20260509113059 51 0 0.0 0.0 0.00 0.00 0.00 95 1011.8
20260509112553 51 0 0.0 0.0 0.00 0.00 0.00 95 1011.9
20260509112053 51 0 0.0 0.0 0.00 0.00 0.00 95 1011.9
20260509111553 50 0 0.0 0.0 0.00 0.00 0.00 95 1011.8
20260509111053 50 0 0.0 0.0 0.00 0.00 0.00 95 1011.8
20260509110553 50 0 0.0 0.0 0.00 0.00 0.00 95 1011.8
20260509110056 50 0 0.0 0.0 0.00 0.00 0.00 95 1011.7
20260509105552 50 0 0.0 0.0 0.00 0.00 0.00 95 1011.7
20260509105053 50 0 0.0 0.0 0.00 0.00 0.00 95 1011.5
20260509104553 50 0 0.0 0.0 0.00 0.00 0.00 95 1011.4
20260509104052 50 0 0.0 0.0 0.00 0.00 0.00 95 1011.6
20260509103552 50 0 0.0 0.0 0.00 0.00 0.00 95 1011.6
20260509103102 50 0 0.0 0.0 0.00 0.00 0.00 95 1011.5
20260509102550 50 0 0.0 0.0 0.00 0.00 0.00 94 1011.5
20260509102050 50 0 0.0 0.0 0.00 0.00 0.00 94 1011.7
20260509101605 50 0 0.0 0.0 0.00 0.00 0.00 94 1011.6
20260509101052 50 0 0.0 0.0 0.00 0.00 0.00 95 1011.6
20260509100553 50 0 0.0 0.0 0.00 0.00 0.00 95 1011.4
20260509100054 50 0 0.0 0.0 0.00 0.00 0.00 95 1011.5
20260509095552 50 0 0.0 0.0 0.00 0.00 0.00 94 1011.5
20260509095052 50 0 0.0 0.0 0.00 0.00 0.00 94 1011.5
20260509094604 50 0 0.0 0.0 0.00 0.00 0.00 94 1011.4
20260509094052 50 0 0.0 0.0 0.00 0.00 0.00 94 1011.7
20260509093553 50 0 0.0 0.0 0.00 0.00 0.00 94 1011.9
20260509093052 50 0 0.0 0.0 0.00 0.00 0.00 94 1011.5
20260509092554 50 0 0.0 0.0 0.00 0.00 0.00 94 1011.8
20260509092056 50 0 0.0 0.0 0.00 0.00 0.00 94 1012.0
20260509091605 50 0 0.0 0.0 0.00 0.00 0.00 94 1011.8
20260509091052 50 0 0.0 0.0 0.00 0.00 0.00 94 1011.7
20260509090553 50 0 0.0 0.0 0.00 0.00 0.00 94 1011.6
20260509085555 49 0 0.0 0.0 0.00 0.00 0.00 94 1011.6
20260509085053 49 0 0.0 0.0 0.00 0.00 0.00 93 1011.4
20260509084600 50 0 0.0 0.0 0.00 0.00 0.00 93 1011.4
20260509084053 50 0 0.0 0.0 0.00 0.00 0.00 93 1011.5
20260509083554 50 0 0.0 0.0 0.00 0.00 0.00 94 1011.6
20260509083100 50 0 0.0 0.0 0.00 0.00 0.00 94 1011.5
20260509082553 50 0 0.0 0.0 0.00 0.00 0.00 93 1011.6
20260509082055 50 0 0.0 0.0 0.00 0.00 0.00 93 1011.6
20260509081552 50 0 0.0 0.0 0.00 0.00 0.00 93 1011.5
20260509081055 50 0 0.0 0.0 0.00 0.00 0.00 93 1011.6
20260509080558 50 0 0.0 0.0 0.00 0.00 0.00 93 1011.4
20260509080057 50 0 0.0 0.0 0.00 0.00 0.00 94 1011.4
20260509075554 50 0 0.0 0.0 0.00 0.00 0.00 93 1011.3
20260509075054 50 0 0.0 0.0 0.00 0.00 0.00 93 1011.4
20260509074556 50 0 0.0 0.0 0.00 0.00 0.00 93 1011.6
20260509074056 50 0 0.0 0.0 0.00 0.00 0.00 93 1011.4
20260509073554 50 0 0.0 0.0 0.00 0.00 0.00 93 1011.6
20260509073054 50 0 0.0 0.0 0.00 0.00 0.00 92 1011.5
20260509072554 50 0 0.0 0.0 0.00 0.00 0.00 92 1011.5
20260509072055 50 0 0.0 0.0 0.00 0.00 0.00 92 1011.5
20260509071559 50 0 0.0 0.0 0.00 0.00 0.00 91 1011.6
20260509071055 50 0 0.0 0.0 0.00 0.00 0.00 91 1011.5
20260509070555 51 0 0.0 0.0 0.00 0.00 0.00 92 1011.7
20260509070056 51 0 0.0 0.0 0.00 0.00 0.00 93 1011.8
20260509065559 51 0 0.0 0.0 0.00 0.00 0.00 92 1011.9
20260509065054 51 0 0.0 0.0 0.00 0.00 0.00 92 1011.9
20260509064556 51 0 0.0 0.0 0.00 0.00 0.00 91 1012.2
20260509064054 51 0 0.0 0.0 0.00 0.00 0.00 91 1012.2
20260509063554 51 0 0.0 0.0 0.00 0.00 0.00 91 1012.3
20260509063055 51 0 0.0 1.0 0.00 0.00 0.00 91 1012.3
20260509062554 52 0 0.0 1.0 0.00 0.00 0.00 91 1012.3
20260509062054 52 0 0.0 0.0 0.00 0.00 0.00 91 1012.4
20260509061555 52 0 0.0 1.0 0.00 0.00 0.00 91 1012.5
20260509061054 52 0 0.0 1.0 0.00 0.00 0.00 91 1012.5
20260509060556 52 0 0.0 1.0 0.00 0.00 0.00 90 1012.7
20260509060107 52 0 0.0 0.0 0.00 0.00 0.00 89 1012.6
20260509055555 52 0 0.0 0.0 0.00 0.00 0.00 89 1012.6
20260509055056 53 0 0.0 1.0 0.00 0.00 0.00 90 1012.8
20260509054559 53 0 0.0 1.0 0.00 0.00 0.00 91 1012.9
20260509054054 53 0 0.0 2.0 0.00 0.00 0.00 91 1012.9
20260509053554 53 0 0.0 2.0 0.00 0.00 0.00 91 1012.7
20260509053115 53 351 0.0 1.0 0.00 0.00 0.00 91 1012.8
20260509052556 53 0 0.0 1.0 0.00 0.00 0.00 91 1012.8
20260509052052 52 0 0.0 1.0 0.00 0.00 0.00 91 1013.0
20260509051555 52 0 0.0 0.0 0.00 0.00 0.00 90 1013.0
20260509051053 52 0 0.0 0.0 0.00 0.00 0.00 89 1013.0
20260509050553 52 0 0.0 0.0 0.00 0.00 0.00 89 1013.0
20260509050109 53 0 0.0 0.0 0.00 0.00 0.00 89 1013.1
20260509045552 53 0 0.0 0.0 0.00 0.00 0.00 88 1013.3
20260509045053 53 0 0.0 0.0 0.00 0.00 0.00 88 1013.2
20260509044656 53 0 0.0 1.0 0.00 0.00 0.00 87 1013.5
20260509044053 53 0 0.0 1.0 0.00 0.00 0.00 87 1013.5
20260509043552 54 0 0.0 1.0 0.00 0.00 0.00 87 1013.4
20260509043140 54 0 0.0 1.0 0.00 0.00 0.00 87 1013.4
20260509042552 54 0 0.0 1.0 0.00 0.00 0.00 87 1013.3
20260509042052 54 0 0.0 2.0 0.00 0.00 0.00 87 1013.2
20260509041559 54 0 0.0 3.0 0.00 0.00 0.00 87 1013.2
20260509041053 54 0 0.0 3.0 0.00 0.00 0.00 87 1013.4
20260509040549 54 76 1.0 3.0 0.00 0.00 0.00 86 1013.2
20260509040059 54 0 0.0 2.0 0.00 0.00 0.00 86 1013.3
20260509035555 54 121 0.0 2.0 0.00 0.00 0.00 86 1013.4
20260509035052 54 0 1.0 2.0 0.00 0.00 0.00 86 1013.5
20260509034557 54 0 0.0 2.0 0.00 0.00 0.00 85 1013.7
20260509034052 54 0 0.0 0.0 0.00 0.00 0.00 85 1013.8
20260509033556 54 0 0.0 0.0 0.00 0.00 0.00 85 1013.8
20260509033056 54 0 0.0 1.0 0.00 0.00 0.00 85 1013.6
20260509032553 54 0 0.0 1.0 0.00 0.00 0.00 85 1013.8
20260509032052 54 0 0.0 2.0 0.00 0.00 0.00 85 1013.9
20260509031559 55 123 0.0 2.0 0.00 0.00 0.00 85 1014.0
20260509031049 54 123 0.0 2.0 0.00 0.00 0.00 85 1014.2
20260509030552 54 0 0.0 2.0 0.00 0.00 0.00 84 1014.1
20260509030112 55 242 0.0 2.0 0.00 0.00 0.00 84 1014.0
20260509025549 55 0 0.0 1.0 0.00 0.00 0.00 84 1013.9
20260509025053 55 0 0.0 1.0 0.00 0.00 0.00 84 1014.0
20260509024552 55 0 0.0 1.0 0.00 0.00 0.00 84 1014.0
20260509024052 55 0 0.0 1.0 0.00 0.00 0.00 84 1014.0
20260509023552 55 242 0.0 2.0 0.00 0.00 0.00 84 1013.9
20260509023055 55 242 0.0 2.0 0.00 0.00 0.00 84 1013.9
20260509022553 55 0 0.0 2.0 0.00 0.00 0.00 84 1013.9
20260509022056 55 286 0.0 2.0 0.00 0.00 0.00 84 1013.8
20260509021554 55 0 0.0 2.0 0.00 0.00 0.00 84 1013.7
20260509021058 55 0 0.0 0.0 0.00 0.00 0.00 84 1013.7
20260509020554 55 0 0.0 0.0 0.00 0.00 0.00 84 1013.6
20260509020107 55 0 0.0 0.0 0.00 0.00 0.00 84 1013.8
20260509015555 55 0 0.0 0.0 0.00 0.00 0.00 84 1013.7
20260509015054 56 0 0.0 0.0 0.00 0.00 0.00 83 1013.6
20260509014557 56 0 0.0 0.0 0.00 0.00 0.00 83 1013.6
20260509014054 56 0 0.0 0.0 0.00 0.00 0.00 82 1013.6
20260509013554 56 0 0.0 0.0 0.00 0.00 0.00 82 1013.4
20260509013102 56 0 0.0 0.0 0.00 0.00 0.00 82 1013.2
20260509012554 56 0 0.0 0.0 0.00 0.00 0.00 82 1013.5
20260509012054 57 0 0.0 0.0 0.00 0.00 0.00 82 1013.5
20260509011601 57 0 0.0 0.0 0.00 0.00 0.00 81 1013.6
20260509011055 57 0 0.0 0.0 0.00 0.00 0.00 81 1013.5
20260509010554 57 0 0.0 0.0 0.00 0.00 0.00 81 1013.6
20260509010057 57 0 0.0 0.0 0.00 0.00 0.00 80 1013.6
20260509005554 58 0 0.0 0.0 0.00 0.00 0.00 80 1013.5
20260509005054 58 0 0.0 0.0 0.00 0.00 0.00 79 1013.4
20260509004603 58 0 0.0 0.0 0.00 0.00 0.00 79 1013.4
20260509004054 59 0 0.0 0.0 0.00 0.00 0.00 78 1013.4
20260509003554 59 0 0.0 1.0 0.00 0.00 0.00 78 1013.6
20260509003059 60 0 0.0 1.0 0.00 0.00 0.00 78 1013.6
20260509002554 60 0 0.0 1.0 0.00 0.00 0.00 78 1013.5
20260509002054 60 0 0.0 1.0 0.00 0.00 0.00 78 1013.4
20260509001557 61 0 0.0 1.0 0.00 0.00 0.00 77 1013.4
20260509001054 61 0 0.0 1.0 0.00 0.00 0.00 77 1013.2
20260509000554 61 0 0.0 1.0 0.00 0.00 0.00 75 1013.2
20260508235554 62 0 0.0 1.0 0.00 0.00 0.00 74 1013.1
20260508235055 62 0 0.0 1.0 0.00 0.00 0.00 74 1013.2
20260508234556 62 0 0.0 1.0 0.00 0.00 0.00 74 1013.3
20260508234056 62 0 0.0 2.0 0.00 0.00 0.00 70 1013.1
20260508233555 63 0 0.0 2.0 0.00 0.00 0.00 70 1013.2
20260508233057 63 14 0.0 2.0 0.00 0.00 0.00 71 1013.2
20260508232556 63 14 0.0 2.0 0.00 0.00 0.00 71 1013.2
20260508232053 63 14 0.0 2.0 0.00 0.00 0.00 72 1013.0
20260508231555 63 14 0.0 2.0 0.00 0.00 0.00 71 1013.2
20260508231055 64 14 0.0 2.0 0.00 0.00 0.00 71 1013.2
20260508230554 64 0 0.0 2.0 0.00 0.00 0.00 68 1013.2
20260508230053 64 0 0.0 2.0 0.00 0.00 0.00 68 1013.4
20260508225552 64 0 0.0 2.0 0.00 0.00 0.00 68 1013.3
20260508225055 64 14 0.0 2.0 0.00 0.00 0.00 67 1013.3
20260508224634 65 0 0.0 2.0 0.00 0.00 0.00 68 1013.2
20260508224052 65 30 0.0 2.0 0.00 0.00 0.00 65 1013.2
20260508223552 65 0 0.0 2.0 0.00 0.00 0.00 65 1013.3